TimeEDT,TemperatureF,Dew PointF,Humidity,Sea Level PressureIn,VisibilityMPH,Wind Direction,Wind SpeedMPH,Gust SpeedMPH,PrecipitationIn,Events,Conditions,WindDirDegrees,DateUTC
12:56 AM,59.0,52.0,78,30.14,8.0,SW,4.6,-,N/A,,Clear,220,2012-10-05 04:56:00
1:56 AM,59.0,52.9,80,30.14,8.0,SW,6.9,-,N/A,,Clear,220,2012-10-05 05:56:00
2:56 AM,59.0,52.9,80,30.12,8.0,SW,8.1,-,N/A,,Clear,220,2012-10-05 06:56:00
3:56 AM,59.0,52.9,80,30.11,8.0,SW,9.2,-,N/A,,Clear,230,2012-10-05 07:56:00
4:56 AM,57.9,52.0,81,30.12,8.0,SW,8.1,-,N/A,,Clear,220,2012-10-05 08:56:00
5:56 AM,56.8,52.0,84,30.13,7.0,SW,8.1,-,N/A,,Clear,230,2012-10-05 09:56:00
6:56 AM,56.8,52.9,87,30.12,7.0,SW,6.9,-,N/A,,Partly Cloudy,230,2012-10-05 10:56:00
7:56 AM,55.9,52.0,87,30.14,4.0,West,5.8,-,N/A,,Clear,260,2012-10-05 11:56:00
8:56 AM,57.9,52.9,83,30.13,5.0,West,3.5,-,N/A,,Haze,270,2012-10-05 12:56:00
9:56 AM,61.0,52.9,75,30.12,5.0,Variable,3.5,-,N/A,,Haze,0,2012-10-05 13:56:00
10:56 AM,64.9,54.0,68,30.12,6.0,West,6.9,-,N/A,,Haze,280,2012-10-05 14:56:00
11:56 AM,65.8,54.0,65,30.12,7.0,West,8.1,-,N/A,,Clear,260,2012-10-05 15:56:00
12:56 PM,66.9,54.9,65,30.11,6.0,West,8.1,-,N/A,,Haze,260,2012-10-05 16:56:00
1:56 PM,68.9,54.9,61,30.07,7.0,Variable,5.8,-,N/A,,Clear,0,2012-10-05 17:56:00
2:47 PM,71.6,53.6,53,30.05,7.0,WSW,10.4,-,N/A,,Partly Cloudy,250,2012-10-05 18:47:00
2:56 PM,72.0,54.9,55,30.04,7.0,WSW,11.5,-,N/A,,Partly Cloudy,250,2012-10-05 18:56:00
3:56 PM,70.9,54.9,57,30.01,7.0,SW,10.4,-,N/A,,Scattered Clouds,230,2012-10-05 19:56:00
4:56 PM,68.0,54.9,63,30.01,7.0,NNW,17.3,20.7,N/A,,Mostly Cloudy,330,2012-10-05 20:56:00
5:13 PM,60.8,51.8,72,30.03,7.0,NW,13.8,-,N/A,,Mostly Cloudy,320,2012-10-05 21:13:00
5:56 PM,54.0,48.9,83,30.03,6.0,NNW,10.4,-,N/A,,Haze,340,2012-10-05 21:56:00
6:06 PM,53.6,48.2,82,30.03,2.0,NNW,12.7,-,N/A,,Mostly Cloudy,340,2012-10-05 22:06:00
6:22 PM,51.8,48.2,88,30.02,6.0,NW,6.9,-,0.01,,Mostly Cloudy,310,2012-10-05 22:22:00
6:56 PM,50.9,47.8,89,29.99,8.0,NW,12.7,-,0.01,,Overcast,320,2012-10-05 22:56:00
7:56 PM,47.8,45.9,93,30.04,6.0,NW,12.7,-,N/A,,Mostly Cloudy,320,2012-10-05 23:56:00
8:56 PM,45.9,41.9,86,30.04,7.0,NNW,11.5,-,0.01,,Mostly Cloudy,330,2012-10-06 00:56:00
9:11 PM,46.4,42.8,87,30.04,4.0,NNW,12.7,-,0.01,,Overcast,330,2012-10-06 01:11:00
9:37 PM,44.6,42.8,93,30.04,4.0,NNW,13.8,-,0.05,,Overcast,330,2012-10-06 01:37:00
9:56 PM,43.0,39.9,89,30.03,6.0,North,13.8,-,0.05,,Overcast,350,2012-10-06 01:56:00
10:08 PM,42.8,39.2,87,30.02,7.0,North,12.7,-,N/A,,Overcast,350,2012-10-06 02:08:00
10:20 PM,42.8,39.2,87,30.02,6.0,North,10.4,-,N/A,,Overcast,350,2012-10-06 02:20:00
10:33 PM,42.8,39.2,87,30.01,8.0,North,8.1,-,N/A,,Overcast,360,2012-10-06 02:33:00
10:56 PM,43.0,39.9,89,30.01,4.0,North,8.1,-,0.02,,Overcast,360,2012-10-06 02:56:00
11:07 PM,42.8,39.2,87,30.02,2.5,NNW,10.4,-,0.03,,Overcast,330,2012-10-06 03:07:00
11:16 PM,42.8,39.2,87,30.03,4.0,NW,8.1,-,0.05,,Overcast,320,2012-10-06 03:16:00
11:56 PM,41.9,39.9,93,30.02,4.0,North,11.5,-,0.10,,Overcast,350,2012-10-06 03:56:00